Year,Month,Day,Hour,Minute,Value (Times are PST for temperature in C)
2012,09,20,00,00,12.60
2012,09,20,00,01,12.60
2012,09,20,00,02,12.60
2012,09,20,00,03,12.60
2012,09,20,00,04,12.60
2012,09,20,00,05,12.60
2012,09,20,00,06,12.60
2012,09,20,00,07,12.70
2012,09,20,00,08,12.70
2012,09,20,00,09,12.70
2012,09,20,00,10,12.70
2012,09,20,00,11,12.70
2012,09,20,00,12,12.70
2012,09,20,00,13,12.70
2012,09,20,00,14,12.60
2012,09,20,00,15,12.60
2012,09,20,00,16,12.60
2012,09,20,00,17,12.60
2012,09,20,00,18,12.60
2012,09,20,00,19,12.50
2012,09,20,00,20,12.50
2012,09,20,00,21,12.50
2012,09,20,00,22,12.40
2012,09,20,00,23,12.40
2012,09,20,00,24,12.40
2012,09,20,00,25,12.40
2012,09,20,00,26,12.30
2012,09,20,00,27,12.30
2012,09,20,00,28,12.30
2012,09,20,00,29,12.30
2012,09,20,00,30,12.30
2012,09,20,00,31,12.30
2012,09,20,00,32,12.30
2012,09,20,00,33,12.30
2012,09,20,00,34,12.20
2012,09,20,00,35,12.20
2012,09,20,00,36,12.20
2012,09,20,00,37,12.10
2012,09,20,00,38,12.10
2012,09,20,00,39,12.10
2012,09,20,00,40,12.10
2012,09,20,00,41,12.00
2012,09,20,00,42,12.00
2012,09,20,00,43,12.00
2012,09,20,00,44,11.90
2012,09,20,00,45,11.90
2012,09,20,00,46,11.90
2012,09,20,00,47,11.90
2012,09,20,00,48,11.80
2012,09,20,00,49,11.80
2012,09,20,00,50,11.80
2012,09,20,00,51,11.80
2012,09,20,00,52,11.70
2012,09,20,00,53,11.70
2012,09,20,00,54,11.70
2012,09,20,00,55,11.60
2012,09,20,00,56,11.60
2012,09,20,00,57,11.60
2012,09,20,00,58,11.60
2012,09,20,00,59,11.60
2012,09,20,01,00,11.60
2012,09,20,01,01,11.60
2012,09,20,01,02,11.60
2012,09,20,01,03,11.60
2012,09,20,01,04,11.60
2012,09,20,01,05,11.60
2012,09,20,01,06,11.60
2012,09,20,01,07,11.60
2012,09,20,01,08,11.60
2012,09,20,01,09,11.60
2012,09,20,01,10,11.50
2012,09,20,01,11,11.40
2012,09,20,01,12,11.40
2012,09,20,01,13,11.40
2012,09,20,01,14,11.40
2012,09,20,01,15,11.40
2012,09,20,01,16,11.40
2012,09,20,01,17,11.40
2012,09,20,01,18,11.30
2012,09,20,01,19,11.30
2012,09,20,01,20,11.30
2012,09,20,01,21,11.30
2012,09,20,01,22,11.20
2012,09,20,01,23,11.20
2012,09,20,01,24,11.20
2012,09,20,01,25,11.20
2012,09,20,01,26,11.20
2012,09,20,01,27,11.20
2012,09,20,01,28,11.10
2012,09,20,01,29,11.10
2012,09,20,01,30,11.10
2012,09,20,01,31,11.10
2012,09,20,01,32,11.10
2012,09,20,01,33,11.10
2012,09,20,01,34,11.10
2012,09,20,01,35,11.10
2012,09,20,01,36,10.90
2012,09,20,01,37,10.90
2012,09,20,01,38,10.90
2012,09,20,01,39,10.90
2012,09,20,01,40,10.90
2012,09,20,01,41,10.90
2012,09,20,01,42,10.90
2012,09,20,01,43,10.90
2012,09,20,01,44,10.90
2012,09,20,01,45,10.90
2012,09,20,01,46,10.90
2012,09,20,01,47,10.90
2012,09,20,01,48,10.90
2012,09,20,01,49,10.90
2012,09,20,01,50,10.90
2012,09,20,01,51,10.90
2012,09,20,01,52,10.80
2012,09,20,01,53,10.80
2012,09,20,01,54,10.80
2012,09,20,01,55,10.80
2012,09,20,01,56,10.80
2012,09,20,01,57,10.80
2012,09,20,01,58,10.80
2012,09,20,01,59,10.80
2012,09,20,02,00,10.80
2012,09,20,02,01,10.80
2012,09,20,02,02,10.80
2012,09,20,02,03,10.80
2012,09,20,02,04,10.80
2012,09,20,02,05,10.70
2012,09,20,02,06,10.70
2012,09,20,02,07,10.70
2012,09,20,02,08,10.70
2012,09,20,02,09,10.60
2012,09,20,02,10,10.60
2012,09,20,02,11,10.60
2012,09,20,02,12,10.60
2012,09,20,02,13,10.60
2012,09,20,02,14,10.60
2012,09,20,02,15,10.60
2012,09,20,02,16,10.60
2012,09,20,02,17,10.60
2012,09,20,02,18,10.60
2012,09,20,02,19,10.60
2012,09,20,02,20,10.60
2012,09,20,02,21,10.60
2012,09,20,02,22,10.60
2012,09,20,02,23,10.60
2012,09,20,02,24,10.60
2012,09,20,02,25,10.60
2012,09,20,02,26,10.60
2012,09,20,02,27,10.60
2012,09,20,02,28,10.60
2012,09,20,02,29,10.60
2012,09,20,02,30,10.60
2012,09,20,02,31,10.60
2012,09,20,02,32,10.60
2012,09,20,02,33,10.60
2012,09,20,02,34,10.60
2012,09,20,02,35,10.60
2012,09,20,02,36,10.60
2012,09,20,02,37,10.60
2012,09,20,02,38,10.50
2012,09,20,02,39,10.40
2012,09,20,02,40,10.40
2012,09,20,02,41,10.40
2012,09,20,02,42,10.40
2012,09,20,02,43,10.40
2012,09,20,02,44,10.40
2012,09,20,02,45,10.40
2012,09,20,02,46,10.40
2012,09,20,02,47,10.40
2012,09,20,02,48,10.40
2012,09,20,02,49,10.30
2012,09,20,02,50,10.30
2012,09,20,02,51,10.30
2012,09,20,02,52,10.20
2012,09,20,02,53,10.20
2012,09,20,02,54,10.20
2012,09,20,02,55,10.10
2012,09,20,02,56,10.10
2012,09,20,02,57,10.10
2012,09,20,02,58,10.10
2012,09,20,02,59,10.10
2012,09,20,03,00,10.10
2012,09,20,03,01,10.10
2012,09,20,03,02,10.10
2012,09,20,03,03,10.00
2012,09,20,03,04,9.90
2012,09,20,03,05,9.90
2012,09,20,03,06,9.90
2012,09,20,03,07,9.90
2012,09,20,03,08,9.90
2012,09,20,03,09,9.90
2012,09,20,03,10,9.90
2012,09,20,03,11,9.90
2012,09,20,03,12,9.80
2012,09,20,03,13,9.80
2012,09,20,03,14,9.80
2012,09,20,03,15,9.80
2012,09,20,03,16,9.80
2012,09,20,03,17,9.80
2012,09,20,03,18,9.80
2012,09,20,03,19,9.80
2012,09,20,03,20,9.80
2012,09,20,03,21,9.80
2012,09,20,03,22,9.80
2012,09,20,03,23,9.70
2012,09,20,03,24,9.70
2012,09,20,03,25,9.70
2012,09,20,03,26,9.80
2012,09,20,03,27,9.80
2012,09,20,03,28,9.70
2012,09,20,03,29,9.70
2012,09,20,03,30,9.70
2012,09,20,03,31,9.70
2012,09,20,03,32,9.70
2012,09,20,03,33,9.70
2012,09,20,03,34,9.70
2012,09,20,03,35,9.70
2012,09,20,03,36,9.70
2012,09,20,03,37,9.70
2012,09,20,03,38,9.70
2012,09,20,03,39,9.70
2012,09,20,03,40,9.70
2012,09,20,03,41,9.70
2012,09,20,03,42,9.70
2012,09,20,03,43,9.70
2012,09,20,03,44,9.70
2012,09,20,03,45,9.70
2012,09,20,03,46,9.70
2012,09,20,03,47,9.70
2012,09,20,03,48,9.70
2012,09,20,03,49,9.70
2012,09,20,03,50,9.80
2012,09,20,03,51,9.70
2012,09,20,03,52,9.70
2012,09,20,03,53,9.70
2012,09,20,03,54,9.70
2012,09,20,03,55,9.70
2012,09,20,03,56,9.70
2012,09,20,03,57,9.70
2012,09,20,03,58,9.70
2012,09,20,03,59,9.70
2012,09,20,04,00,9.70
2012,09,20,04,01,9.60
2012,09,20,04,02,9.60
2012,09,20,04,03,9.60
2012,09,20,04,04,9.60
2012,09,20,04,05,9.60
2012,09,20,04,06,9.60
2012,09,20,04,07,9.60
2012,09,20,04,08,9.50
2012,09,20,04,09,9.50
2012,09,20,04,10,9.50
2012,09,20,04,11,9.50
2012,09,20,04,12,9.60
2012,09,20,04,13,9.70
2012,09,20,04,14,9.70
2012,09,20,04,15,9.80
2012,09,20,04,16,9.90
2012,09,20,04,17,9.90
2012,09,20,04,18,9.90
2012,09,20,04,19,9.90
2012,09,20,04,20,10.00
2012,09,20,04,21,10.10
2012,09,20,04,22,10.10
2012,09,20,04,23,10.10
2012,09,20,04,24,10.10
2012,09,20,04,25,10.10
2012,09,20,04,26,10.10
2012,09,20,04,27,10.10
2012,09,20,04,28,9.90
2012,09,20,04,29,9.90
2012,09,20,04,30,9.90
2012,09,20,04,31,9.90
2012,09,20,04,32,9.90
2012,09,20,04,33,9.90
2012,09,20,04,34,10.10
2012,09,20,04,35,10.10
2012,09,20,04,36,10.10
2012,09,20,04,37,10.00
2012,09,20,04,38,9.90
2012,09,20,04,39,9.90
2012,09,20,04,40,9.90
2012,09,20,04,41,9.90
2012,09,20,04,42,9.90
2012,09,20,04,43,9.90
2012,09,20,04,44,9.90
2012,09,20,04,45,9.90
2012,09,20,04,46,9.90
2012,09,20,04,47,9.90
2012,09,20,04,48,9.90
2012,09,20,04,49,9.90
2012,09,20,04,50,9.90
2012,09,20,04,51,9.80
2012,09,20,04,52,9.80
2012,09,20,04,53,9.80
2012,09,20,04,54,9.70
2012,09,20,04,55,9.70
2012,09,20,04,56,9.70
2012,09,20,04,57,9.70
2012,09,20,04,58,9.60
2012,09,20,04,59,9.60
2012,09,20,05,00,9.50
2012,09,20,05,01,9.50
2012,09,20,05,02,9.50
2012,09,20,05,03,9.40
2012,09,20,05,04,9.40
2012,09,20,05,05,9.40
2012,09,20,05,06,9.30
2012,09,20,05,07,9.30
2012,09,20,05,08,9.30
2012,09,20,05,09,9.20
2012,09,20,05,10,9.20
2012,09,20,05,11,9.20
2012,09,20,05,12,9.10
2012,09,20,05,13,9.10
2012,09,20,05,14,9.10
2012,09,20,05,15,9.00
2012,09,20,05,16,9.00
2012,09,20,05,17,9.00
2012,09,20,05,18,9.00
2012,09,20,05,19,9.00
2012,09,20,05,20,9.00
2012,09,20,05,21,9.00
2012,09,20,05,22,9.00
2012,09,20,05,23,9.00
2012,09,20,05,24,8.90
2012,09,20,05,25,8.90
2012,09,20,05,26,8.90
2012,09,20,05,27,8.90
2012,09,20,05,28,8.90
2012,09,20,05,29,8.90
2012,09,20,05,30,8.90
2012,09,20,05,31,8.90
2012,09,20,05,32,8.90
2012,09,20,05,33,8.90
2012,09,20,05,34,8.90
2012,09,20,05,35,8.90
2012,09,20,05,36,9.00
2012,09,20,05,37,9.00
2012,09,20,05,38,9.00
2012,09,20,05,39,9.00
2012,09,20,05,40,9.00
2012,09,20,05,41,9.00
2012,09,20,05,42,9.00
2012,09,20,05,43,9.00
2012,09,20,05,44,8.90
2012,09,20,05,45,8.90
2012,09,20,05,46,8.90
2012,09,20,05,47,8.90
2012,09,20,05,48,8.90
2012,09,20,05,49,8.90
2012,09,20,05,50,8.80
2012,09,20,05,51,8.80
2012,09,20,05,52,8.80
2012,09,20,05,53,8.80
2012,09,20,05,54,8.80
2012,09,20,05,55,8.80
2012,09,20,05,56,8.80
2012,09,20,05,57,8.80
2012,09,20,05,58,8.80
2012,09,20,05,59,8.80
2012,09,20,06,00,8.80
2012,09,20,06,01,8.90
2012,09,20,06,02,8.90
2012,09,20,06,03,8.90
2012,09,20,06,04,8.90
2012,09,20,06,05,8.90
2012,09,20,06,06,8.90
2012,09,20,06,07,8.90
2012,09,20,06,08,9.00
2012,09,20,06,09,9.00
2012,09,20,06,10,9.00
2012,09,20,06,11,9.00
2012,09,20,06,12,9.00
2012,09,20,06,13,9.00
2012,09,20,06,14,9.00
2012,09,20,06,15,9.00
2012,09,20,06,16,9.00
2012,09,20,06,17,9.00
2012,09,20,06,18,9.00
2012,09,20,06,19,9.00
2012,09,20,06,20,9.00
2012,09,20,06,21,9.00
2012,09,20,06,22,9.00
2012,09,20,06,23,9.00
2012,09,20,06,24,9.00
2012,09,20,06,25,9.00
2012,09,20,06,26,9.00
2012,09,20,06,27,8.90
2012,09,20,06,28,8.90
2012,09,20,06,29,8.90
2012,09,20,06,30,8.90
2012,09,20,06,31,9.00
2012,09,20,06,32,9.00
2012,09,20,06,33,9.00
2012,09,20,06,34,9.00
2012,09,20,06,35,9.00
2012,09,20,06,36,9.00
2012,09,20,06,37,9.10
2012,09,20,06,38,9.10
2012,09,20,06,39,9.10
2012,09,20,06,40,9.10
2012,09,20,06,41,9.10
2012,09,20,06,42,9.10
2012,09,20,06,43,9.10
2012,09,20,06,44,9.10
2012,09,20,06,45,9.10
2012,09,20,06,46,9.20
2012,09,20,06,47,9.20
2012,09,20,06,48,9.20
2012,09,20,06,49,9.20
2012,09,20,06,50,9.20
2012,09,20,06,51,9.20
2012,09,20,06,52,9.20
2012,09,20,06,53,9.30
2012,09,20,06,54,9.30
2012,09,20,06,55,9.30
2012,09,20,06,56,9.40
2012,09,20,06,57,9.40
2012,09,20,06,58,9.40
2012,09,20,06,59,9.40
2012,09,20,07,00,9.40
2012,09,20,07,01,9.50
2012,09,20,07,02,9.50
2012,09,20,07,03,9.50
2012,09,20,07,04,9.50
2012,09,20,07,05,9.50
2012,09,20,07,06,9.50
2012,09,20,07,07,9.60
2012,09,20,07,08,9.60
2012,09,20,07,09,9.60
2012,09,20,07,10,9.70
2012,09,20,07,11,9.70
2012,09,20,07,12,9.70
2012,09,20,07,13,9.70
2012,09,20,07,14,9.70
2012,09,20,07,15,9.70
2012,09,20,07,16,9.70
2012,09,20,07,17,9.80
2012,09,20,07,18,9.80
2012,09,20,07,19,9.80
2012,09,20,07,20,9.90
2012,09,20,07,21,9.90
2012,09,20,07,22,9.90
2012,09,20,07,23,9.90
2012,09,20,07,24,9.90
2012,09,20,07,25,10.00
2012,09,20,07,26,10.10
2012,09,20,07,27,10.10
2012,09,20,07,28,10.10
2012,09,20,07,29,10.10
2012,09,20,07,30,10.10
2012,09,20,07,31,10.10
2012,09,20,07,32,10.10
2012,09,20,07,33,10.10
2012,09,20,07,34,10.10
2012,09,20,07,35,10.10
2012,09,20,07,36,10.10
2012,09,20,07,37,10.10
2012,09,20,07,38,10.10
2012,09,20,07,39,10.10
2012,09,20,07,40,10.10
2012,09,20,07,41,10.10
2012,09,20,07,42,10.10
2012,09,20,07,43,10.10
2012,09,20,07,44,10.10
2012,09,20,07,45,10.10
2012,09,20,07,46,10.10
2012,09,20,07,47,10.00
2012,09,20,07,48,9.90
2012,09,20,07,49,9.90
2012,09,20,07,50,9.90
2012,09,20,07,51,9.90
2012,09,20,07,52,9.90
2012,09,20,07,53,9.90
2012,09,20,07,54,9.90
2012,09,20,07,55,9.90
2012,09,20,07,56,9.90
2012,09,20,07,57,9.90
2012,09,20,07,58,9.90
2012,09,20,07,59,9.90
2012,09,20,08,00,9.90
2012,09,20,08,01,10.00
2012,09,20,08,02,10.10
2012,09,20,08,03,10.10
2012,09,20,08,04,10.10
2012,09,20,08,05,10.10
2012,09,20,08,06,10.10
2012,09,20,08,07,10.10
2012,09,20,08,08,10.10
2012,09,20,08,09,10.20
2012,09,20,08,10,10.20
2012,09,20,08,11,10.20
2012,09,20,08,12,10.20
2012,09,20,08,13,10.20
2012,09,20,08,14,10.20
2012,09,20,08,15,10.30
2012,09,20,08,16,10.30
2012,09,20,08,17,10.30
2012,09,20,08,18,10.30
2012,09,20,08,19,10.40
2012,09,20,08,20,10.40
2012,09,20,08,21,10.40
2012,09,20,08,22,10.50
2012,09,20,08,23,10.60
2012,09,20,08,24,10.60
2012,09,20,08,25,10.60
2012,09,20,08,26,10.60
2012,09,20,08,27,10.70
2012,09,20,08,28,10.80
2012,09,20,08,29,10.80
2012,09,20,08,30,10.90
2012,09,20,08,31,10.90
2012,09,20,08,32,10.90
2012,09,20,08,33,10.90
2012,09,20,08,34,11.00
2012,09,20,08,35,11.10
2012,09,20,08,36,11.10
2012,09,20,08,37,11.20
2012,09,20,08,38,11.30
2012,09,20,08,39,11.30
2012,09,20,08,40,11.40
2012,09,20,08,41,11.40
2012,09,20,08,42,11.60
2012,09,20,08,43,11.60
2012,09,20,08,44,11.60
2012,09,20,08,45,11.70
2012,09,20,08,46,11.80
2012,09,20,08,47,11.80
2012,09,20,08,48,11.90
2012,09,20,08,49,12.00
2012,09,20,08,50,12.00
2012,09,20,08,51,12.10
2012,09,20,08,52,12.20
2012,09,20,08,53,12.20
2012,09,20,08,54,12.30
2012,09,20,08,55,12.40
2012,09,20,08,56,12.50
2012,09,20,08,57,12.60
2012,09,20,08,58,12.60
2012,09,20,08,59,12.80
2012,09,20,09,00,12.80
2012,09,20,09,01,12.90
2012,09,20,09,02,13.00
2012,09,20,09,03,13.00
2012,09,20,09,04,13.10
2012,09,20,09,05,13.20
2012,09,20,09,06,13.20
2012,09,20,09,07,13.30
2012,09,20,09,08,13.30
2012,09,20,09,09,13.30
2012,09,20,09,10,13.30
2012,09,20,09,11,13.30
2012,09,20,09,12,13.40
2012,09,20,09,13,13.40
2012,09,20,09,14,13.50
2012,09,20,09,15,13.50
2012,09,20,09,16,13.60
2012,09,20,09,17,13.60
2012,09,20,09,18,13.70
2012,09,20,09,19,13.70
2012,09,20,09,20,13.70
2012,09,20,09,21,13.70
2012,09,20,09,22,13.70
2012,09,20,09,23,13.80
2012,09,20,09,24,13.80
2012,09,20,09,25,13.80
2012,09,20,09,26,13.80
2012,09,20,09,27,13.90
2012,09,20,09,28,13.90
2012,09,20,09,29,14.00
2012,09,20,09,30,14.00
2012,09,20,09,31,14.10
2012,09,20,09,32,14.10
2012,09,20,09,33,14.10
2012,09,20,09,34,14.20
2012,09,20,09,35,14.20
2012,09,20,09,36,14.20
2012,09,20,09,37,14.20
2012,09,20,09,38,14.20
2012,09,20,09,39,14.20
2012,09,20,09,40,14.30
2012,09,20,09,41,14.30
2012,09,20,09,42,14.30
2012,09,20,09,43,14.30
2012,09,20,09,44,14.40
2012,09,20,09,45,14.40
2012,09,20,09,46,14.40
2012,09,20,09,47,14.50
2012,09,20,09,48,14.50
2012,09,20,09,49,14.50
2012,09,20,09,50,14.50
2012,09,20,09,51,14.60
2012,09,20,09,52,14.60
2012,09,20,09,53,14.70
2012,09,20,09,54,14.80
2012,09,20,09,55,14.80
2012,09,20,09,56,14.80
2012,09,20,09,57,14.80
2012,09,20,09,58,14.80
2012,09,20,09,59,14.90
2012,09,20,10,00,14.90
2012,09,20,10,01,14.90
2012,09,20,10,02,15.00
2012,09,20,10,03,15.10
2012,09,20,10,04,15.10
2012,09,20,10,05,15.20
2012,09,20,10,06,15.30
2012,09,20,10,07,15.30
2012,09,20,10,08,15.30
2012,09,20,10,09,15.40
2012,09,20,10,10,15.40
2012,09,20,10,11,15.40
2012,09,20,10,12,15.40
2012,09,20,10,13,15.40
2012,09,20,10,14,15.40
2012,09,20,10,15,15.40
2012,09,20,10,16,15.50
2012,09,20,10,17,15.50
2012,09,20,10,18,15.50
2012,09,20,10,19,15.50
2012,09,20,10,20,15.50
2012,09,20,10,21,15.50
2012,09,20,10,22,15.50
2012,09,20,10,23,15.50
2012,09,20,10,24,15.60
2012,09,20,10,25,15.60
2012,09,20,10,26,15.60
2012,09,20,10,27,15.60
2012,09,20,10,28,15.70
2012,09,20,10,29,15.70
2012,09,20,10,30,15.70
2012,09,20,10,31,15.70
2012,09,20,10,32,15.70
2012,09,20,10,33,15.70
2012,09,20,10,34,15.70
2012,09,20,10,35,15.70
2012,09,20,10,36,15.70
2012,09,20,10,37,15.70
2012,09,20,10,38,15.60
2012,09,20,10,39,15.60
2012,09,20,10,40,15.50
2012,09,20,10,41,15.50
2012,09,20,10,42,15.50
2012,09,20,10,43,15.40
2012,09,20,10,44,15.30
2012,09,20,10,45,15.30
2012,09,20,10,46,15.20
2012,09,20,10,47,15.20
2012,09,20,10,48,15.20
2012,09,20,10,49,15.20
2012,09,20,10,50,15.20
2012,09,20,10,51,15.20
2012,09,20,10,52,15.10
2012,09,20,10,53,15.10
2012,09,20,10,54,15.20
2012,09,20,10,55,15.20
2012,09,20,10,56,15.30
2012,09,20,10,57,15.30
2012,09,20,10,58,15.30
2012,09,20,10,59,15.30
2012,09,20,11,00,15.30
2012,09,20,11,01,15.20
2012,09,20,11,02,15.20
2012,09,20,11,03,15.20
2012,09,20,11,04,15.20
2012,09,20,11,05,15.20
2012,09,20,11,06,15.30
2012,09,20,11,07,15.30
2012,09,20,11,08,15.40
2012,09,20,11,09,15.50
2012,09,20,11,10,15.60
2012,09,20,11,11,15.60
2012,09,20,11,12,15.70
2012,09,20,11,13,15.80
2012,09,20,11,14,15.80
2012,09,20,11,15,15.80
2012,09,20,11,16,15.90
2012,09,20,11,17,16.10
2012,09,20,11,18,16.10
2012,09,20,11,19,16.20
2012,09,20,11,20,16.30
2012,09,20,11,21,16.40
2012,09,20,11,22,16.40
2012,09,20,11,23,16.40
2012,09,20,11,24,16.60
2012,09,20,11,25,16.60
2012,09,20,11,26,16.70
2012,09,20,11,27,16.70
2012,09,20,11,28,16.70
2012,09,20,11,29,16.70
2012,09,20,11,30,16.70
2012,09,20,11,31,16.70
2012,09,20,11,32,16.70
2012,09,20,11,33,16.80
2012,09,20,11,34,16.90
2012,09,20,11,35,16.90
2012,09,20,11,36,17.00
2012,09,20,11,37,17.00
2012,09,20,11,38,17.10
2012,09,20,11,39,17.10
2012,09,20,11,40,17.10
2012,09,20,11,41,17.10
2012,09,20,11,42,17.10
2012,09,20,11,43,17.20
2012,09,20,11,44,17.20
2012,09,20,11,45,17.30
2012,09,20,11,46,17.40
2012,09,20,11,47,17.50
2012,09,20,11,48,17.60
2012,09,20,11,49,17.70
2012,09,20,11,50,17.70
2012,09,20,11,51,17.90
2012,09,20,11,52,17.90
2012,09,20,11,53,17.90
2012,09,20,11,54,18.00
2012,09,20,11,55,18.10
2012,09,20,11,56,18.20
2012,09,20,11,57,18.30
2012,09,20,11,58,18.40
2012,09,20,11,59,18.40
2012,09,20,12,00,18.50
2012,09,20,12,01,18.50
2012,09,20,12,02,18.60
2012,09,20,12,03,18.60
2012,09,20,12,04,18.70
2012,09,20,12,05,18.70
2012,09,20,12,06,18.70
2012,09,20,12,07,18.60
2012,09,20,12,08,18.60
2012,09,20,12,09,18.60
2012,09,20,12,10,18.70
2012,09,20,12,11,18.70
2012,09,20,12,12,18.70
2012,09,20,12,13,18.70
2012,09,20,12,14,18.70
2012,09,20,12,15,18.70
2012,09,20,12,16,18.80
2012,09,20,12,17,18.80
2012,09,20,12,18,18.90
2012,09,20,12,19,18.90
2012,09,20,12,20,18.90
2012,09,20,12,21,18.90
2012,09,20,12,22,18.90
2012,09,20,12,23,18.90
2012,09,20,12,24,18.90
2012,09,20,12,25,18.90
2012,09,20,12,26,19.10
2012,09,20,12,27,19.10
2012,09,20,12,28,19.10
2012,09,20,12,29,19.20
2012,09,20,12,30,19.20
2012,09,20,12,31,19.20
2012,09,20,12,32,19.20
2012,09,20,12,33,19.20
2012,09,20,12,34,19.20
2012,09,20,12,35,19.30
2012,09,20,12,36,19.30
2012,09,20,12,37,19.30
2012,09,20,12,38,19.40
2012,09,20,12,39,19.30
2012,09,20,12,40,19.30
2012,09,20,12,41,19.40
2012,09,20,12,42,19.40
2012,09,20,12,43,19.40
2012,09,20,12,44,19.40
2012,09,20,12,45,19.40
2012,09,20,12,46,19.40
2012,09,20,12,47,19.40
2012,09,20,12,48,19.40
2012,09,20,12,49,19.50
2012,09,20,12,50,19.50
2012,09,20,12,51,19.50
2012,09,20,12,52,19.50
2012,09,20,12,53,19.60
2012,09,20,12,54,19.60
2012,09,20,12,55,19.60
2012,09,20,12,56,19.60
2012,09,20,12,57,19.60
2012,09,20,12,58,19.70
2012,09,20,12,59,19.60
2012,09,20,13,00,19.60
2012,09,20,13,01,19.70
2012,09,20,13,02,19.70
2012,09,20,13,03,19.70
2012,09,20,13,04,19.80
2012,09,20,13,05,19.80
2012,09,20,13,06,19.90
2012,09,20,13,07,19.90
2012,09,20,13,08,20.00
2012,09,20,13,09,20.20
2012,09,20,13,10,20.20
2012,09,20,13,11,20.20
2012,09,20,13,12,20.30
2012,09,20,13,13,20.40
2012,09,20,13,14,20.40
2012,09,20,13,15,20.50
2012,09,20,13,16,20.50
2012,09,20,13,17,20.60
2012,09,20,13,18,20.60
2012,09,20,13,19,20.60
2012,09,20,13,20,20.70
2012,09,20,13,21,20.70
2012,09,20,13,22,20.80
2012,09,20,13,23,20.80
2012,09,20,13,24,20.90
2012,09,20,13,25,20.90
2012,09,20,13,26,20.90
2012,09,20,13,27,20.90
2012,09,20,13,28,20.80
2012,09,20,13,29,20.80
2012,09,20,13,30,20.80
2012,09,20,13,31,20.90
2012,09,20,13,32,20.90
2012,09,20,13,33,20.90
2012,09,20,13,34,20.90
2012,09,20,13,35,20.90
2012,09,20,13,36,20.90
2012,09,20,13,37,21.00
2012,09,20,13,38,21.00
2012,09,20,13,39,21.00
2012,09,20,13,40,21.10
2012,09,20,13,41,21.20
2012,09,20,13,42,21.20
2012,09,20,13,43,21.10
2012,09,20,13,44,21.10
2012,09,20,13,45,21.10
2012,09,20,13,46,21.00
2012,09,20,13,47,20.90
2012,09,20,13,48,20.80
2012,09,20,13,49,20.80
2012,09,20,13,50,20.60
2012,09,20,13,51,20.60
2012,09,20,13,52,20.50
2012,09,20,13,53,20.50
2012,09,20,13,54,20.50
2012,09,20,13,55,20.50
2012,09,20,13,56,20.60
2012,09,20,13,57,20.60
2012,09,20,13,58,20.60
2012,09,20,13,59,20.60
2012,09,20,14,00,20.60
2012,09,20,14,01,20.70
2012,09,20,14,02,20.70
2012,09,20,14,03,20.70
2012,09,20,14,04,20.80
2012,09,20,14,05,20.80
2012,09,20,14,06,20.80
2012,09,20,14,07,20.70
2012,09,20,14,08,20.80
2012,09,20,14,09,20.80
2012,09,20,14,10,20.80
2012,09,20,14,11,20.80
2012,09,20,14,12,20.80
2012,09,20,14,13,20.80
2012,09,20,14,14,20.90
2012,09,20,14,15,20.90
2012,09,20,14,16,21.00
2012,09,20,14,17,21.00
2012,09,20,14,18,21.10
2012,09,20,14,19,21.20
2012,09,20,14,20,21.30
2012,09,20,14,21,21.40
2012,09,20,14,22,21.40
2012,09,20,14,23,21.50
2012,09,20,14,24,21.60
2012,09,20,14,25,21.60
2012,09,20,14,26,21.60
2012,09,20,14,27,21.70
2012,09,20,14,28,21.70
2012,09,20,14,29,21.80
2012,09,20,14,30,21.80
2012,09,20,14,31,21.90
2012,09,20,14,32,22.00
2012,09,20,14,33,22.00
2012,09,20,14,34,22.00
2012,09,20,14,35,21.80
2012,09,20,14,36,21.60
2012,09,20,14,37,21.40
2012,09,20,14,38,21.30
2012,09,20,14,39,21.30
2012,09,20,14,40,21.30
2012,09,20,14,41,21.30
2012,09,20,14,42,21.30
2012,09,20,14,43,21.30
2012,09,20,14,44,21.30
2012,09,20,14,45,21.40
2012,09,20,14,46,21.30
2012,09,20,14,47,21.30
2012,09,20,14,48,21.30
2012,09,20,14,49,21.30
2012,09,20,14,50,21.30
2012,09,20,14,51,21.30
2012,09,20,14,52,21.20
2012,09,20,14,53,21.20
2012,09,20,14,54,21.30
2012,09,20,14,55,21.30
2012,09,20,14,56,21.30
2012,09,20,14,57,21.30
2012,09,20,14,58,21.20
2012,09,20,14,59,21.20
2012,09,20,15,00,21.30
2012,09,20,15,01,21.30
2012,09,20,15,02,21.30
2012,09,20,15,03,21.30
2012,09,20,15,04,21.40
2012,09,20,15,05,21.40
2012,09,20,15,06,21.60
2012,09,20,15,07,21.60
2012,09,20,15,08,21.60
2012,09,20,15,09,21.60
2012,09,20,15,10,21.60
2012,09,20,15,11,21.60
2012,09,20,15,12,21.60
2012,09,20,15,13,21.60
2012,09,20,15,14,21.60
2012,09,20,15,15,21.60
2012,09,20,15,16,21.50
2012,09,20,15,17,21.40
2012,09,20,15,18,21.40
2012,09,20,15,19,21.30
2012,09,20,15,20,21.30
2012,09,20,15,21,21.30
2012,09,20,15,22,21.10
2012,09,20,15,23,21.00
2012,09,20,15,24,20.90
2012,09,20,15,25,20.80
2012,09,20,15,26,20.80
2012,09,20,15,27,20.70
2012,09,20,15,28,20.60
2012,09,20,15,29,20.50
2012,09,20,15,30,20.40
2012,09,20,15,31,20.40
2012,09,20,15,32,20.40
2012,09,20,15,33,20.40
2012,09,20,15,34,20.40
2012,09,20,15,35,20.40
2012,09,20,15,36,20.50
2012,09,20,15,37,20.50
2012,09,20,15,38,20.50
2012,09,20,15,39,20.50
2012,09,20,15,40,20.50
2012,09,20,15,41,20.50
2012,09,20,15,42,20.50
2012,09,20,15,43,20.50
2012,09,20,15,44,20.40
2012,09,20,15,45,20.50
2012,09,20,15,46,20.50
2012,09,20,15,47,20.60
2012,09,20,15,48,20.60
2012,09,20,15,49,20.60
2012,09,20,15,50,20.60
2012,09,20,15,51,20.70
2012,09,20,15,52,20.70
2012,09,20,15,53,20.70
2012,09,20,15,54,20.70
2012,09,20,15,55,20.70
2012,09,20,15,56,20.60
2012,09,20,15,57,20.60
2012,09,20,15,58,20.50
2012,09,20,15,59,20.40
2012,09,20,16,00,20.30
2012,09,20,16,01,20.20
2012,09,20,16,02,20.10
2012,09,20,16,03,20.10
2012,09,20,16,04,20.10
2012,09,20,16,05,20.10
2012,09,20,16,06,20.20
2012,09,20,16,07,20.20
2012,09,20,16,08,20.20
2012,09,20,16,09,20.20
2012,09,20,16,10,20.20
2012,09,20,16,11,20.20
2012,09,20,16,12,20.20
2012,09,20,16,13,20.20
2012,09,20,16,14,20.20
2012,09,20,16,15,20.30
2012,09,20,16,16,20.30
2012,09,20,16,17,20.40
2012,09,20,16,18,20.50
2012,09,20,16,19,20.60
2012,09,20,16,20,20.60
2012,09,20,16,21,20.70
2012,09,20,16,22,20.80
2012,09,20,16,23,20.90
2012,09,20,16,24,20.90
2012,09,20,16,25,20.90
2012,09,20,16,26,20.90
2012,09,20,16,27,20.90
2012,09,20,16,28,20.90
2012,09,20,16,29,20.80
2012,09,20,16,30,20.70
2012,09,20,16,31,20.70
2012,09,20,16,32,20.60
2012,09,20,16,33,20.60
2012,09,20,16,34,20.70
2012,09,20,16,35,20.80
2012,09,20,16,36,20.80
2012,09,20,16,37,20.80
2012,09,20,16,38,20.60
2012,09,20,16,39,20.60
2012,09,20,16,40,20.50
2012,09,20,16,41,20.50
2012,09,20,16,42,20.50
2012,09,20,16,43,20.50
2012,09,20,16,44,20.50
2012,09,20,16,45,20.50
2012,09,20,16,46,20.50
2012,09,20,16,47,20.50
2012,09,20,16,48,20.50
2012,09,20,16,49,20.50
2012,09,20,16,50,20.50
2012,09,20,16,51,20.40
2012,09,20,16,52,20.40
2012,09,20,16,53,20.40
2012,09,20,16,54,20.40
2012,09,20,16,55,20.30
2012,09,20,16,56,20.30
2012,09,20,16,57,20.20
2012,09,20,16,58,20.20
2012,09,20,16,59,20.20
2012,09,20,17,00,20.20
2012,09,20,17,01,20.20
2012,09,20,17,02,20.20
2012,09,20,17,03,20.20
2012,09,20,17,04,20.20
2012,09,20,17,05,20.20
2012,09,20,17,06,20.20
2012,09,20,17,07,20.20
2012,09,20,17,08,20.10
2012,09,20,17,09,20.10
2012,09,20,17,10,20.10
2012,09,20,17,11,20.10
2012,09,20,17,12,20.20
2012,09,20,17,13,20.20
2012,09,20,17,14,20.20
2012,09,20,17,15,20.20
2012,09,20,17,16,20.20
2012,09,20,17,17,20.20
2012,09,20,17,18,20.20
2012,09,20,17,19,20.30
2012,09,20,17,20,20.40
2012,09,20,17,21,20.40
2012,09,20,17,22,20.50
2012,09,20,17,23,20.50
2012,09,20,17,24,20.60
2012,09,20,17,25,20.60
2012,09,20,17,26,20.60
2012,09,20,17,27,20.60
2012,09,20,17,28,20.70
2012,09,20,17,29,20.70
2012,09,20,17,30,20.70